TimeEDT,TemperatureF,Dew PointF,Humidity,Sea Level PressureIn,VisibilityMPH,Wind Direction,Wind SpeedMPH,Gust SpeedMPH,PrecipitationIn,Events,Conditions,WindDirDegrees,DateUTC
12:53 AM,43.0,42.1,97,30.25,10.0,Calm,Calm,-,N/A,,Clear,0,2013-09-28 04:53:00
1:53 AM,41.0,37.9,89,30.25,10.0,NW,3.5,-,N/A,,Clear,310,2013-09-28 05:53:00
2:44 AM,41.0,39.2,93,30.24,1.8,NNW,4.6,-,N/A,,Clear,330,2013-09-28 06:44:00
2:53 AM,41.0,39.0,93,30.24,4.0,NNW,3.5,-,N/A,,Clear,330,2013-09-28 06:53:00
3:53 AM,42.1,41.0,96,30.24,10.0,North,5.8,-,N/A,,Clear,360,2013-09-28 07:53:00
4:35 AM,39.2,37.4,93,30.24,2.5,North,4.6,-,N/A,,Clear,360,2013-09-28 08:35:00
4:43 AM,44.6,41.0,87,30.24,10.0,Calm,Calm,-,N/A,,Clear,0,2013-09-28 08:43:00
4:53 AM,45.0,43.0,93,30.25,10.0,Calm,Calm,-,N/A,,Clear,0,2013-09-28 08:53:00
5:08 AM,41.0,39.2,93,30.25,1.8,North,5.8,-,N/A,,Clear,350,2013-09-28 09:08:00
5:21 AM,42.8,41.0,93,30.25,3.0,North,5.8,-,N/A,,Clear,350,2013-09-28 09:21:00
5:49 AM,42.8,39.2,87,30.26,1.8,NNW,3.5,-,N/A,,Clear,340,2013-09-28 09:49:00
5:50 AM,42.1,39.0,89,30.26,1.5,NNW,3.5,-,N/A,,Clear,340,2013-09-28 09:50:00
5:56 AM,42.8,41.0,93,30.26,10.0,Calm,Calm,-,N/A,,Clear,0,2013-09-28 09:56:00
6:53 AM,43.0,39.9,89,30.28,10.0,Calm,Calm,-,N/A,,Clear,0,2013-09-28 10:53:00
7:53 AM,57.0,53.1,87,30.29,10.0,Calm,Calm,-,N/A,,Clear,0,2013-09-28 11:53:00
8:53 AM,64.0,55.9,75,30.29,10.0,NE,5.8,-,N/A,,Clear,40,2013-09-28 12:53:00
9:53 AM,68.0,54.0,61,30.30,10.0,ENE,8.1,-,N/A,,Clear,60,2013-09-28 13:53:00
10:53 AM,69.1,53.1,57,30.30,10.0,ENE,10.4,-,N/A,,Clear,60,2013-09-28 14:53:00
11:53 AM,71.1,51.1,49,30.30,10.0,ENE,10.4,-,N/A,,Clear,70,2013-09-28 15:53:00
12:53 PM,71.1,53.1,53,30.29,10.0,ENE,9.2,-,N/A,,Clear,60,2013-09-28 16:53:00
1:53 PM,71.1,55.0,57,30.28,10.0,NE,9.2,-,N/A,,Clear,40,2013-09-28 17:53:00
2:53 PM,71.1,55.0,57,30.27,10.0,ENE,9.2,-,N/A,,Clear,60,2013-09-28 18:53:00
3:53 PM,69.1,48.9,49,30.27,10.0,East,9.2,-,N/A,,Clear,80,2013-09-28 19:53:00
4:53 PM,66.0,46.9,50,30.28,10.0,ENE,9.2,-,N/A,,Clear,70,2013-09-28 20:53:00
5:53 PM,63.0,48.9,60,30.28,10.0,ENE,6.9,-,N/A,,Clear,70,2013-09-28 21:53:00
6:53 PM,57.0,48.0,72,30.28,10.0,East,4.6,-,N/A,,Clear,90,2013-09-28 22:53:00
7:53 PM,52.0,46.9,83,30.28,10.0,Calm,Calm,-,N/A,,Clear,0,2013-09-28 23:53:00
8:53 PM,46.0,43.0,89,30.28,10.0,Calm,Calm,-,N/A,,Clear,0,2013-09-29 00:53:00
9:53 PM,45.0,42.1,90,30.28,10.0,Calm,Calm,-,N/A,,Clear,0,2013-09-29 01:53:00
10:53 PM,43.0,39.9,89,30.27,10.0,Calm,Calm,-,N/A,,Clear,0,2013-09-29 02:53:00
11:53 PM,37.9,36.0,93,30.26,10.0,North,3.5,-,N/A,,Clear,350,2013-09-29 03:53:00